CST,Max TemperatureF,Mean TemperatureF,Min TemperatureF,Max Dew PointF,MeanDew PointF,Min DewpointF,Max Humidity, Mean Humidity, Min Humidity, Max Sea Level PressureIn, Mean Sea Level PressureIn, Min Sea Level PressureIn, Max VisibilityMiles, Mean VisibilityMiles, Min VisibilityMiles, Max Wind SpeedMPH, Mean Wind SpeedMPH, Max Gust SpeedMPH,PrecipitationIn, CloudCover, Events, WindDirDegrees
2012-10-1,80,72,64,66,65,64,100,76,58,30.02,29.94,29.87,6,6,3,10,4,,0.00,5,Rain-Thunderstorm,265
2012-10-2,82,75,68,72,66,63,100,73,54,30.03,29.97,29.92,6,6,6,17,10,,0.00,6,,67
2012-10-3,80,74,69,66,63,59,78,66,54,30.01,29.98,29.94,6,6,6,14,11,24,0.00,6,Rain,81
2012-10-4,86,77,68,72,64,59,88,69,40,30.08,29.99,29.92,6,5,2,15,12,25,0.00,5,Rain-Thunderstorm,338
2012-10-5,78,73,68,63,61,59,78,64,54,30.01,29.97,29.93,6,6,6,16,9,,0.00,6,Rain-Thunderstorm,98
2012-10-6,80,72,64,68,62,57,88,68,45,29.96,29.93,29.88,6,6,6,21,7,,0.00,6,Rain-Thunderstorm,76
2012-10-7,80,74,68,68,65,59,94,75,54,29.97,29.93,29.89,6,5,4,13,10,,0.00,6,Rain-Thunderstorm,294
2012-10-8,77,72,66,70,66,64,100,88,69,30.02,29.98,29.96,6,4,1,12,5,,0.00,6,Fog-Rain,295
2012-10-9,78,72,66,70,66,63,100,81,65,30.08,30.00,29.94,6,5,1,14,4,,0.00,6,Fog-Rain-Thunderstorm,250
2012-10-10,78,72,66,66,65,63,100,76,57,30.07,29.99,29.93,6,6,0,10,5,,0.00,7,Fog-Rain,107
2012-10-11,78,74,69,66,63,61,88,68,57,30.04,29.98,29.94,6,6,6,17,12,,0.00,4,Rain,93
2012-10-12,82,75,68,68,64,61,100,70,48,30.03,29.97,29.91,6,5,2,16,12,,0.00,5,Rain,41
2012-10-13,80,74,68,70,66,61,100,74,51,30.01,29.94,29.87,6,5,2,14,10,,0.00,6,Rain-Thunderstorm,276
2012-10-14,77,70,64,68,65,63,100,80,65,30.02,29.97,29.91,6,6,2,14,5,,0.00,5,Rain-Thunderstorm,281
2012-10-15,77,72,66,70,66,63,100,82,65,30.01,29.95,29.89,6,6,5,12,4,,0.00,6,Fog-Rain,286
2012-10-16,80,71,62,68,64,61,100,78,51,29.99,29.93,29.89,6,5,2,16,8,,0.00,5,Rain-Thunderstorm,91
2012-10-17,78,71,64,70,66,63,100,84,61,30.02,29.95,29.91,6,5,2,12,5,,0.00,5,Rain-Thunderstorm,29
2012-10-18,77,72,66,70,66,63,100,84,61,30.03,29.96,29.92,6,4,0,16,5,,0.00,6,Fog-Rain,267
2012-10-19,75,70,66,70,67,64,100,91,69,30.01,29.95,29.89,6,4,1,13,6,,0.00,6,Fog-Rain,267
2012-10-20,77,72,66,70,68,66,100,88,69,29.97,29.91,29.86,6,6,5,14,6,,0.00,6,Fog-Rain-Thunderstorm,265
2012-10-21,78,72,66,70,68,64,100,88,65,29.98,29.92,29.85,6,4,0,15,4,,0.00,5,Fog-Rain-Thunderstorm,282
2012-10-22,78,72,66,70,68,63,100,87,61,29.94,29.88,29.83,6,4,0,15,6,,0.00,5,Fog-Rain-Thunderstorm,279
2012-10-23,77,70,64,70,67,64,100,86,65,29.89,29.84,29.80,6,5,2,12,5,,0.00,5,Rain-Thunderstorm,312
2012-10-24,75,70,66,70,68,66,100,94,78,29.95,29.89,29.85,5,2,0,16,8,,0.00,7,Fog-Rain,288
2012-10-25,71,68,66,70,67,66,100,97,83,30.00,29.94,29.91,6,3,0,16,7,,0.00,6,Fog-Rain,282
2012-10-26,77,70,64,70,66,63,100,81,65,30.00,29.94,29.89,6,6,6,13,6,,0.00,4,,274
2012-10-27,80,74,69,64,63,61,78,67,58,29.98,29.92,29.86,6,6,6,17,11,,0.00,4,Rain,89
2012-10-28,78,73,68,63,60,59,73,62,51,30.00,29.95,29.90,6,6,6,18,13,25,0.00,2,,85
2012-10-29,78,73,68,63,60,57,73,65,57,30.05,29.99,29.95,6,6,6,20,14,25,0.00,4,,94
2012-10-30,78,73,68,63,60,57,68,61,54,30.06,30.01,29.96,6,6,6,17,14,23,0.00,5,,78
2012-10-31,77,72,68,63,61,59,78,68,61,30.06,30.00,29.96,6,6,6,15,13,24,0.00,5,Rain,100